Home   Weather   Riga   Past weeks

Flag for Latvia Past Weather in Riga, Latvia — Yesterday and Last 2 Weeks

Now
30 °F

Sunny.


Feels Like: 21 °F
Forecast: 36 / 47 °F
Wind: 12 mph from Southwest

Location: Riga Airport

Current Time: Dec 7, 2016 at 12:48:42 pm

Latest Report: Dec 7, 2016 at 12:20 pm


Visibility: 10 mi

Pressure: 30.30 "Hg

Humidity: 80%

Dew Point: 25 °F

Location of RigaLocation

Past Weather in Riga — Graph

°F

Riga Temperature Yesterday

Maximum temperature yesterday: 39 °F (at 12:20 am)
Minimum temperature yesterday: 19 °F (at 11:50 pm)
Average temperature yesterday: 30 °F

High & Low Weather Summary for the Past Weeks

 TemperatureHumidityPressure
High45 °F (Nov 26, 8:20 am)100% (Nov 23, 7:20 am)30.45 "Hg (Nov 23, 7:20 am)
Low16 °F (Nov 29, 6:50 pm)59% (Dec 4, 6:20 am)29.27 "Hg (Nov 26, 7:50 pm)
Average33 °F90%29.87 "Hg
* Reported Nov 22 11:20 am — Dec 7 11:20 am, Riga, Weather by CustomWeather, © 2016

Note: Actual official high and low records may vary slightly from our data, if they occured in-between our weather recording intervals... More about our weather records

Advertising

Riga Weather History for the Previous 24 Hours

Scroll right to see more
 ConditionsComfort  
Time TempWeatherWind HumidityBarometerVisibility
11:20 am
Wed, Dec 7
28 °FScattered clouds.10 mph80%30.33 "HgN/A
10:50 am28 °FScattered clouds.10 mph80%30.36 "HgN/A
10:20 am28 °FPartly sunny.12 mph80%30.36 "HgN/A
9:50 am27 °FOvercast.10 mph86%30.36 "HgN/A
9:20 am27 °FOvercast.12 mph80%30.39 "HgN/A
8:50 am25 °FOvercast.9 mph86%30.39 "HgN/A
8:20 am25 °FOvercast.7 mph80%30.42 "HgN/A
7:50 am23 °FPassing clouds.7 mph86%30.42 "HgN/A
7:20 am23 °FPassing clouds.8 mph86%30.42 "HgN/A
6:50 am25 °FPassing clouds.8 mph80%30.42 "HgN/A
6:20 am25 °FPassing clouds.8 mph80%30.45 "HgN/A
5:50 am23 °FPassing clouds.7 mph86%30.45 "HgN/A
5:20 am23 °FPassing clouds.5 mph86%30.42 "HgN/A
4:50 am23 °FPassing clouds.5 mph86%30.45 "HgN/A
4:20 am23 °FPassing clouds.5 mph86%30.45 "HgN/A
3:50 am21 °FPassing clouds.6 mph93%30.45 "HgN/A
3:20 am18 °FPassing clouds.5 mph100%30.45 "HgN/A
2:50 am18 °FPassing clouds.3 mph100%30.45 "HgN/A
2:20 am19 °FPassing clouds.6 mph100%30.42 "HgN/A
1:50 am19 °FPassing clouds.3 mph100%30.42 "HgN/A
1:20 am21 °FPassing clouds.2 mph93%30.42 "HgN/A
12:50 am19 °FPassing clouds.No wind93%30.42 "HgN/A
12:20 am19 °FPassing clouds.3 mph93%30.45 "HgN/A
11:50 pm
Tue, Dec 6
19 °FPassing clouds.3 mph93%30.45 "HgN/A
11:20 pm21 °FPassing clouds.2 mph86%30.42 "HgN/A
10:50 pm21 °FPassing clouds.3 mph93%30.42 "HgN/A
10:20 pm21 °FPassing clouds.6 mph93%30.42 "HgN/A
9:50 pm21 °FPassing clouds.2 mph93%30.42 "HgN/A
9:20 pm21 °FPassing clouds.3 mph93%30.39 "HgN/A
8:50 pm23 °FPassing clouds.2 mph86%30.39 "HgN/A
7:50 pm25 °FPassing clouds.2 mph80%30.39 "HgN/A
7:20 pm27 °FPassing clouds.No wind74%30.36 "HgN/A
6:50 pm27 °FPassing clouds.5 mph74%30.36 "HgN/A
6:20 pm28 °FPassing clouds.9 mph74%30.36 "HgN/A
5:50 pm27 °FPassing clouds.7 mph80%30.33 "HgN/A
5:20 pm27 °FPassing clouds.6 mph80%30.33 "HgN/A
4:50 pm28 °FPassing clouds.9 mph69%30.30 "HgN/A
4:20 pm27 °FPassing clouds.9 mph74%30.30 "HgN/A
3:50 pm27 °FPassing clouds.12 mph74%30.27 "HgN/A
3:20 pm27 °FScattered clouds.9 mph74%30.24 "HgN/A
2:50 pm27 °FScattered clouds.9 mph74%30.24 "HgN/A
2:20 pm27 °FPartly sunny.12 mph74%30.24 "HgN/A
1:50 pm28 °FPartly sunny.15 mph69%30.21 "HgN/A
1:20 pm28 °FPartly sunny.14 mph74%30.18 "HgN/A
12:50 pm28 °FPartly sunny.13 mph74%30.18 "HgN/A
12:20 pm28 °FPartly sunny.15 mph74%30.15 "HgN/A
Weather by CustomWeather, © 2016

See weather overviewHow to use our weather pages